www.pogodaiklimat.ru

Погода и климат >> Архив погоды >> Норвегия >> Oslo


АРХИВ ПОГОДЫ в Oslo

Время (UTC), дата Ветер
(напр.,м/с)
 
Видим.   Явления Облачность Т
(С)
Тd
(С)
f
(%)
Тe
(С)
Тes
(С)
Комфортность P
(гПа)
Po
(гПа)
Тmin
(С)
Tmax
(С)
R
(мм)
R24
(мм)
S
(см)
11 12.10 СВ 3
{6}
8000 м дымка н/о +10.0 +8.1 88 +8 +8 по сезону 1018.9 1007.1
10 12.10 СВ 3
{5}
9000 м дымка н/о +10.0 +7.9 87 +8 +8 по сезону 1019.6 1007.8
12 12.10 СВ 3
{7}
8000 м дымка 10/10 100 м
[St]
+10.2 +8.3 88 +8 +8 по сезону 1018.4 1006.7
13 12.10 СВ 2
{5}
8000 м дымка н/о +10.4 +8.5 88 +9 +9 тепло 1018.0 1006.3
14 12.10 СВ 2
{5}
7000 м дымка н/о +10.7 +8.8 88 +9 +9 тепло 1017.9 1006.2
15 12.10 СВ 3
{5}
7000 м дымка 10/10 100 м
[St]
+10.7 +9.0 89 +9 +9 по сезону 1017.0 1005.3
17 12.10 СВ 2
{3}
8000 м дымка н/о +11.3 +9.4 88 +10 +10 тепло 1017.0 1005.3
16 12.10 СВ 2
{5}
7000 м дымка н/о +11.4 +9.3 87 +10 +10 тепло 1018.0 1006.3
18 12.10 В 2
{5}
10 км 10/10 100 м
[St]
+12.2 +9.9 86 +11 +11 тепло 1017.1 1005.5 +9.5 +12.2
19 12.10 ЮЗ 1
{3}
7000 м дымка н/о +12.3 +10.7 90 +12 +12 тепло 1017.2 1005.6
20 12.10 ЮЗ 2
{3}
4900 м дымка н/о +11.9 +10.6 92 +11 +11 тепло 1017.8 1006.1
21 12.10 Ю 3
{5}
12 км 10/9 100 м
[St]
+12.6 +11.7 94 +11 +11 тепло 1017.1 1005.5
23 12.10 ЮЗ 2
{5}
7000 м дымка н/о +13.2 +12.1 93 +12 +12 тепло 1016.5 1004.9
22 12.10 Ю 3
{6}
11 км дымка н/о +13.2 +11.8 91 +12 +12 тепло 1016.9 1005.3
00 13.10 Ю 3
{6}
6000 м дымка н/о +13.6 +12.2 91 +12 +12 тепло 1016.0 1004.4
01 13.10 Ю 4
{7}
6000 м дымка н/о +13.5 +12.1 91 +12 +12 тепло 1015.4 1003.8
02 13.10 Ю 4
{7}
8000 м дымка н/о +13.7 +11.9 89 +12 +12 тепло 1015.3 1003.7
03 13.10 Ю 4
{8}
7000 м дымка н/о +13.9 +12.1 89 +12 +12 тепло 1014.8 1003.3
05 13.10 Ю 4
{8}
7000 м дымка н/о +14.4 +12.4 88 +13 +13 тепло 1013.6 1002.1
04 13.10 Ю 4 6000 м дымка н/о +14.2 +12.4 89 +13 +13 тепло 1013.8 1002.3
06 13.10 Ю 5
{9}
20 км 10/6 200 м
[St Ac As]
+14.9 +12.8 87 +13 +13 тепло 1013.4 1001.9 +11.9 +14.9
07 13.10 Ю 5
{10}
11 км н/о +15.2 +12.9 86 +14 +14 тепло 1013.5 1002.0
08 13.10 Ю 4
{10}
11 км н/о +15.3 +13.0 86 +14 +14 тепло 1014.0 1002.5
09 13.10 Ю 5
{11}
12 км 10/9 200 м
[St]
+15.4 +13.1 86 +14 +14 тепло 1013.9 1002.4
11 13.10 Ю 5
{9}
14 км н/о +16.1 +13.2 83 +15 +15 тепло 1014.1 1002.6
10 13.10 Ю 4
{12}
14 км н/о +15.7 +13.2 85 +15 +15 тепло 1014.2 1002.7
12 13.10 Ю 4
{12}
15 км 10/9 300 м
[St]
+16.3 +13.2 82 +16 +16 тепло 1014.0 1002.6
13 13.10 Ю 5
{10}
17 км н/о +16.4 +13.1 81 +15 +15 тепло 1013.8 1002.4
14 13.10 Ю 5
{11}
18 км н/о +16.6 +13.1 80 +16 +16 тепло 1013.5 1002.1
15 13.10 Ю 5
{11}
20 км 10/10 300 м
[Sc]
+16.4 +13.1 81 +15 +15 тепло 1013.5 1002.1
17 13.10 Ю 4
{8}
13 км н/о +15.8 +13.1 84 +15 +15 тепло 1013.9 1002.4
16 13.10 Ю 5
{10}
17 км н/о +16.1 +13.2 83 +15 +15 тепло 1013.6 1002.2
18 13.10 ЮЗ 3
{11}
15 км 10/10 200 м
[St]
+15.5 +13.2 86 +15 +15 тепло 1014.3 1002.8 +14.9 +16.9
19 13.10 Ю 3
{7}
10 км н/о +15.2 +13.2 88 +14 +14 тепло 1014.4 1002.9
20 13.10 Ю 2
{6}
н/о н/о +15.2 +13.2 88 +15 +15 тепло 1014.4 1002.9
21 13.10 ЮЗ 2
{6}
12 км 9/9 300 м
[St]
+15.1 +13.3 89 +15 +15 тепло 1014.1 1002.6
23 13.10 Ю 4
{8}
9000 м дымка н/о +15.0 +13.2 89 +14 +14 тепло 1013.7 1002.2
22 13.10 ЮЗ 3
{7}
9000 м дымка н/о +15.0 +13.2 89 +14 +14 тепло 1014.2 1002.7
00 14.10 Ю 2
{8}
9000 м дымка н/о +14.8 +13.2 90 +14 +14 тепло 1013.6 1002.1
01 14.10 ЮЗ 2
{4}
9000 м дымка н/о +14.8 +13.2 90 +14 +14 тепло 1013.2 1001.7
02 14.10 Ю 2
{5}
9000 м дымка н/о +14.4 +12.6 89 +14 +14 тепло 1013.0 1001.5
03 14.10 Ю 2
{5}
8000 м дымка н/о +14.2 +12.4 89 +14 +14 тепло 1012.8 1001.3
05 14.10 Ю 3
{7}
6000 м дымка н/о +14.0 +12.1 88 +13 +13 тепло 1012.1 1000.6
04 14.10 Ю 3
{6}
8000 м дымка н/о +14.2 +12.2 88 +13 +13 тепло 1012.4 1000.9
06 14.10 Ю 3
{7}
15 км 10/9 200 м
[St]
+13.9 +12.0 88 +13 +13 тепло 1011.8 1000.3 +13.9 +15.5
07 14.10 Ю 5
{8}
8000 м дымка н/о +14.2 +11.7 85 +12 +12 тепло 1011.8 1000.3
08 14.10 Ю 4
{10}
10 км дымка н/о +14.3 +11.5 83 +13 +13 тепло 1011.8 1000.3
09 14.10 Ю 4
{8}
9000 м дымка 9/9 300 м
[St]
+14.8 +11.6 81 +14 +14 тепло 1011.7 1000.2
11 14.10 ЮЗ 5
{8}
12 км н/о +16.9 +12.0 73 +16 +16 тепло 1011.3 999.9
10 14.10 Ю 4
{8}
11 км н/о +15.3 +11.7 79 +14 +14 тепло 1011.6 1000.1
12 14.10 ЮЗ 4
{10}
9000 м дымка 4/4 300 м
[St Ci fib]
+17.0 +11.5 70 +17 +18 тепло 1010.6 999.2
13 14.10 ЮЗ 3
{9}
12 км н/о +16.9 +12.0 73 +17 +17 тепло 1010.0 998.6
14 14.10 ЮЗ 3
{6}
10 км н/о +14.9 +11.3 79 +14 +14 тепло 1009.5 998.1
15 14.10 ЮЗ 3
{6}
9000 м дымка 9/8 200 м
[St Ac trans Cc]
+13.8 +11.2 84 +13 +13 тепло 1009.5 998.0
17 14.10 Ю 4
{7}
9000 м н/о +13.2 +10.6 84 +11 +11 тепло 1008.8 997.3
16 14.10 ЮЗ 3
{8}
10 км н/о +13.6 +10.6 82 +12 +12 тепло 1009.4 997.9
18 14.10 Ю 4
{9}
8000 м дымка 10/9 200 м
[St]
+13.3 +10.5 83 +12 +12 тепло 1008.2 996.7 +13.1 +17.3
19 14.10 Ю 3
{6}
9000 м н/о +12.8 +10.5 86 +11 +11 тепло 1008.0 996.5
20 14.10 Ю 3
{8}
10 км н/о +13.4 +10.6 83 +12 +12 тепло 1007.7 996.2
21 14.10 Ю 4
{7}
7000 м дымка 10/9 200 м
[St]
+13.4 +10.9 85 +12 +12 тепло 1007.7 996.2
23 14.10 Ю 4
{8}
7000 м дымка н/о +13.3 +11.2 87 +12 +12 тепло 1007.3 995.8
22 14.10 Ю 4
{8}
7000 м дымка н/о +13.3 +11.2 87 +12 +12 тепло 1007.4 995.9
00 15.10 Ю 3
{8}
6000 м дымка н/о +13.3 +11.4 88 +12 +12 тепло 1007.2 995.7
01 15.10 Ю 3
{8}
6000 м дымка н/о +13.2 +11.3 88 +12 +12 тепло 1007.4 995.9
02 15.10 Ю 3
{7}
7000 м дымка н/о +13.3 +11.4 88 +12 +12 тепло 1007.3 995.8
03 15.10 Ю 2
{5}
7000 м дымка н/о +13.3 +11.4 88 +13 +13 тепло 1007.6 996.1
05 15.10 Ю 2
{5}
3700 м дымка н/о +13.2 +11.6 90 +12 +12 тепло 1007.6 996.1
04 15.10 Ю 3 6000 м дымка н/о +13.3 +11.4 88 +12 +12 тепло 1007.5 996.0
06 15.10 Ю 2
{8}
4000 м дождь 10/10 100 м
[Frnb]
+12.8 +12.2 96 +12 +12 тепло 1008.2 996.7 +12.6 +13.5 0.2
07 15.10 Ю 3
{6}
1100 м туман н/о +12.9 +12.4 97 +11 +11 тепло 1008.6 997.1 0.1
08 15.10 ЮЗ 2
{7}
1300 м в посл. час туман н/о +13.0 +12.5 97 +12 +12 тепло 1009.1 997.6
09 15.10 Ю 3
{6}
800 м слабая морось {туман} 10/10 <50 м
[St]
+13.0 +12.5 97 +12 +12 тепло 1009.7 998.2
11 15.10 Ю 4
{8}
4900 м дымка н/о +12.4 +11.8 96 +10 +10 тепло 1010.3 998.7
10 15.10 Ю 4
{8}
2900 м дымка н/о +12.5 +12.0 97 +10 +10 тепло 1009.9 998.4
12 15.10 Ю 3
{8}
20 км слабый дождь {морось, туман} 10/10 100 м
[St]
+12.7 +11.8 94 +11 +11 тепло 1010.4 998.9
13 15.10 ЮЗ 2
{5}
11 км слаб. ливневой дождь н/о +12.6 +11.5 93 +12 +12 тепло 1010.8 999.2 0.1
14 15.10 З 2
{3}
11 км слаб. дождь н/о +12.6 +11.3 92 +12 +12 тепло 1011.3 999.7
15 15.10 З 2
{4}
25 км слабый дождь {морось} 10/6 100 м
[Cu Sc Ac As]
+12.3 +11.0 92 +11 +11 тепло 1011.6 1000.0 0.1
17 15.10 С 3
{5}
21 км слаб. дождь н/о +10.8 +9.1 89 +9 +9 тепло 1012.7 1001.1 0.5
16 15.10 С 2
{3}
22 км слаб. дождь н/о +11.9 +10.5 91 +11 +11 тепло 1012.2 1000.6 0.2
18 15.10 СВ 2
{5}
55 км слабый дождь 10/6 200 м
[Frnb Ac trans]
+10.4 +8.7 89 +9 +9 тепло 1013.0 1001.3 +10.4 +13.0 0.2
19 15.10 СВ 1
{3}
25 км слаб. ливневой дождь н/о +10.1 +9.0 93 +10 +10 тепло 1013.6 1001.9 0.1
20 15.10 СВ 2
{4}
17 км слаб. дождь н/о +9.8 +8.7 93 +8 +8 тепло 1014.1 1002.4 0.7
21 15.10 С 1
{3}
50 км слаб. дождь н/о +9.6 +8.5 93 +9 +9 тепло 1014.5 1002.8 0.1
23 15.10 СВ 1
{2}
50 км н/о +7.9 +7.0 94 +7 +7 тепло 1015.6 1003.8
22 15.10 С 2
{3}
50 км н/о +9.0 +7.8 92 +7 +7 тепло 1014.8 1003.1
00 16.10 СВ 2
{4}
50 км н/о +6.7 +6.0 95 +4 +4 по сезону 1016.0 1004.1
01 16.10 С 2
{3}
50 км н/о +6.8 +5.4 91 +4 +4 тепло 1016.1 1004.2
02 16.10 СВ 2
{4}
50 км н/о +6.0 +4.8 92 +3 +3 по сезону 1016.5 1004.6
03 16.10 СВ 3
{5}
50 км н/о +5.7 +4.7 93 +2 +2 по сезону 1016.8 1004.9
05 16.10 СВ 1
{3}
50 км н/о +4.5 +3.8 95 +3 +3 тепло 1018.0 1006.0
04 16.10 СВ 2
{4}
50 км н/о +4.9 +4.0 94 +2 +2 по сезону 1017.2 1005.3
06 16.10 штиль 0
{5}
н/о н/о +3.9 +3.3 96 +3 +3 по сезону 1018.9 1006.9 +3.8 +10.4
07 16.10 В 2
{3}
50 км н/о +4.7 +3.7 93 +2 +2 по сезону 1018.8 1006.8
08 16.10 СЗ 1
{3}
50 км н/о +5.7 +4.5 92 +4 +4 по сезону 1019.4 1007.5
09 16.10 В 1
{3}
70 км 4/1 200 м
[St Ac trans Cs]
+6.7 +4.7 87 +6 +7 по сезону 1019.5 1007.6
11 16.10 В 3
{6}
45 км н/о +7.4 +4.7 83 +5 +5 по сезону 1019.2 1007.3
10 16.10 В 2
{3}
50 км н/о +6.7 +4.2 84 +4 +4 по сезону 1019.7 1007.8
12 16.10 СВ 2
{6}
65 км 9/9 300 м
[St]
+7.6 +5.1 84 +6 +6 по сезону 1019.2 1007.3
13 16.10 В 2
{4}
50 км н/о +7.7 +4.8 82 +6 +6 тепло 1018.9 1007.1
14 16.10 В 2
{4}
50 км н/о +7.8 +4.8 81 +6 +6 по сезону 1018.4 1006.6
15 16.10 СВ 3
{5}
70 км 9/9 300 м
[St]
+7.5 +4.8 83 +5 +5 по сезону 1018.2 1006.4
17 16.10 С 2
{4}
35 км н/о +7.5 +5.3 86 +5 +5 тепло 1018.2 1006.4
16 16.10 С 2
{4}
50 км н/о +7.4 +4.9 84 +5 +5 по сезону 1018.1 1006.2
18 16.10 СВ 2
{5}
25 км 10/10 200 м
[St]
+7.0 +5.8 92 +5 +5 по сезону 1018.1 1006.2 +3.9 +7.9
19 16.10 СВ 1
{3}
21 км н/о +7.3 +6.1 92 +6 +6 тепло 1017.5 1005.7
20 16.10 СВ 1
{2}
6000 м дымка н/о +7.4 +6.4 93 +6 +6 тепло 1017.1 1005.3
21 16.10 С 1
{2}
6000 м дымка 10/10 200 м
[St]
+7.7 +6.6 93 +7 +7 по сезону 1017.0 1005.2
23 16.10 СЗ 1
{2}
16 км н/о +8.1 +7.0 93 +7 +7 тепло 1016.2 1004.4
22 16.10 В 1
{2}
21 км н/о +8.0 +6.6 91 +7 +7 тепло 1016.5 1004.7
00 17.10 штиль 0
{3}
8000 м дымка н/о +8.0 +7.1 94 +7 +7 тепло 1016.0 1004.2
01 17.10 З 1
{2}
6000 м дымка н/о +8.0 +7.3 95 +7 +7 тепло 1015.7 1003.9
02 17.10 ЮВ 1
{1}
2700 м в посл. час туман н/о +8.1 +7.5 96 +7 +7 тепло 1015.2 1003.4
03 17.10 ЮВ 1
{3}
5000 м слаб. ливневой дождь н/о +8.4 +7.8 96 +7 +7 тепло 1014.8 1003.0 0.2
05 17.10 С 1
{1}
2300 м слаб. ливневой дождь н/о +8.7 +8.3 97 +8 +8 тепло 1014.2 1002.4 0.3
04 17.10 СВ 1
{2}
9000 м сильн. морось н/о +8.5 +7.9 96 +8 +8 тепло 1014.6 1002.8 0.2
06 17.10 СЗ 1
{3}
2000 м слабый дождь {туман} 10/10 <50 м
[St]
+8.9 +8.5 97 +8 +8 тепло 1014.1 1002.4 +7.0 +8.9 0.1
07 17.10 С 1 1600 м морось н/о +9.2 +8.7 97 +8 +8 тепло 1013.9 1002.2 0.2
08 17.10 З 1
{1}
2200 м в посл. час морось н/о +9.6 +9.2 97 +9 +9 тепло 1013.9 1002.2
09 17.10 З 1
{2}
1000 м слабая морось {дождь} 10/10 <50 м
[St]
+10.0 +9.6 97 +9 +9 тепло 1014.2 1002.5
11 17.10 З 1
{2}
6000 м в посл. час туман н/о +11.5 +11.2 98 +11 +11 тепло 1014.1 1002.5
10 17.10 штиль 0
{2}
800 м туман н/о +10.2 +9.9 98 +9 +9 тепло 1014.3 1002.6
12 17.10 ЮЗ 1
{3}
9000 м дымка н/о +12.2 +11.4 95 +12 +12 тепло 1014.0 1002.4
13 17.10 Ю 3
{5}
18 км н/о +13.1 +11.5 90 +12 +12 тепло 1013.9 1002.3
14 17.10 Ю 3
{7}
20 км н/о +13.4 +11.5 88 +12 +12 тепло 1013.9 1002.3
15 17.10 Ю 4
{8}
25 км 9/8 100 м
[St Ac As Ci fib]
+13.2 +11.6 90 +11 +11 тепло 1013.5 1001.9
17 17.10 ЮЗ 3
{5}
11 км н/о +12.4 +11.1 92 +11 +11 тепло 1014.1 1002.5
16 17.10 Ю 3
{9}
13 км н/о +12.7 +11.3 91 +11 +11 тепло 1013.8 1002.2
18 17.10 Ю 2
{9}
н/о н/о +12.4 +11.3 93 +11 +11 тепло 1014.4 1002.8 +8.9 +13.8
19 17.10 ЮЗ 2
{4}
9000 м н/о +12.2 +11.1 93 +11 +11 тепло 1014.7 1003.1
20 17.10 ЮЗ 2
{4}
6000 м дымка н/о +11.2 +10.4 95 +10 +10 тепло 1015.1 1003.4
21 17.10 ЮЗ 1
{3}
15 км 9/9 100 м
[St]
+11.1 +10.5 96 +11 +11 тепло 1015.3 1003.6
23 17.10 ЮЗ 2
{3}
6000 м дымка н/о +9.6 +9.2 97 +8 +8 тепло 1015.7 1004.0
22 17.10 ЮЗ 1
{2}
3300 м дымка н/о +10.1 +9.7 97 +9 +9 тепло 1015.4 1003.7
00 18.10 СЗ 1
{4}
15 км н/о +8.9 +8.5 97 +8 +8 тепло 1016.2 1004.4
01 18.10 С 1
{5}
50 км н/о +8.3 +4.3 76 +8 +8 тепло 1016.6 1004.8
02 18.10 З 1
{4}
50 км н/о +6.9 +3.3 78 +6 +6 тепло 1017.0 1005.1
03 18.10 СВ 2
{3}
50 км н/о +5.5 +3.4 86 +3 +3 по сезону 1017.2 1005.3
05 18.10 СЗ 2
{2}
50 км н/о +3.8 +2.0 88 +1 +1 по сезону 1017.7 1005.7
04 18.10 СЗ 2
{3}
50 км н/о +4.6 +2.3 85 +2 +2 по сезону 1017.5 1005.5
06 18.10 СЗ 2
{5}
65 км 1/1 200 м
[St]
+4.0 +1.6 84 +1 +1 по сезону 1018.3 1006.3 +3.7 +12.4
07 18.10 ЮЗ 1
{3}
30 км н/о +3.7 +2.1 89 +2 +2 по сезону 1019.5 1007.5
08 18.10 Ю 2
{3}
40 км н/о +7.3 +3.9 79 +5 +5 по сезону 1019.9 1008.0
09 18.10 ЮЗ 2
{4}
70 км 1/0
[Ac trans]
+8.9 +3.5 69 +7 +8 по сезону 1019.7 1007.9
11 18.10 З 4
{7}
45 км н/о +12.1 -0.1 43 +10 +10 тепло 1020.1 1008.4
10 18.10 ЮЗ 4
{5}
45 км н/о +11.0 +2.8 57 +9 +9 тепло 1019.7 1008.0
12 18.10 З 4
{8}
70 км 1/1 300 м
[Cu hum Ac trans]
+12.9 0.0 41 +11 +13 тепло 1020.0 1008.3
13 18.10 З 3
{7}
50 км н/о +13.2 -0.1 40 +12 +12 тепло 1020.0 1008.4
14 18.10 З 2
{6}
50 км н/о +13.1 -0.2 40 +13 +13 тепло 1020.0 1008.4
15 18.10 З 2
{6}
>70 км 1/0
[Ac trans]
+12.6 +0.1 42 +12 +12 тепло 1020.1 1008.4
17 18.10 СЗ 3
{5}
50 км н/о +8.9 +0.1 54 +7 +7 тепло 1021.1 1009.3
16 18.10 З 3
{4}
50 км н/о +10.4 -0.1 48 +9 +9 тепло 1020.7 1008.9
18 18.10
{7}
>70 км 1/0
[Ac trans]
+6.5 +1.0 68 1021.6 1009.7 +3.4 +13.7
19 18.10 СЗ 2
{6}
50 км н/о +7.4 +0.2 60 +6 +6 тепло 1022.1 1010.2
20 18.10 В 2
{4}
50 км н/о +5.1 +0.7 73 +3 +3 по сезону 1022.6 1010.6
21 18.10 С 2
{3}
70 км ясно +4.2 +0.4 76 +2 +2 по сезону 1022.7 1010.7
23 18.10 СВ 2
{4}
50 км н/о +3.8 -0.2 75 +1 +1 по сезону 1023.3 1011.2
22 18.10 СВ 1
{3}
50 км н/о +3.6 0.0 77 +2 +2 по сезону 1023.0 1010.9
00 19.10 СВ 2
{6}
50 км н/о +3.5 -0.1 77 +1 +1 по сезону 1023.6 1011.5
01 19.10 СВ 1
{3}
50 км н/о +3.8 0.0 76 +3 +3 тепло 1023.7 1011.6
02 19.10 С 2
{3}
50 км н/о +3.5 +0.2 79 +1 +1 по сезону 1023.6 1011.5
03 19.10 штиль 0
{2}
50 км н/о +3.1 +0.3 82 +2 +2 по сезону 1023.5 1011.4
05 19.10 СВ 1
{2}
50 км н/о +2.9 +0.8 86 +1 +1 по сезону 1023.7 1011.6
06 19.10 С 2
{3}
65 км 6/1 1000 м
[Sc Ac trans Ci fib]
+3.2 +0.9 85 0 0 по сезону 1023.6 1011.5 +2.5 +8.2
07 19.10 СВ 2
{3}
50 км н/о +3.7 +0.8 81 +1 +1 тепло 1023.7 1011.6
08 19.10 СВ 1
{2}
50 км н/о +4.8 +1.3 78 +4 +4 тепло 1023.9 1011.9

 

Местоположение метеостанции Oslo (Норвегия): широта 59.94 долгота 10.72 высота над уровнем моря 94 м.

В архиве по умолчанию представлена погода в Oslo за последнюю неделю. Архивные данные за месяц целиком и за предыдущие месяцы, начиная с января 2011 года, Вы можете получить, выбрав интересующий диапазон дат из раскрывающегося списка и нажав кнопку "Ввод!".


*Определитесь, кто Вы:
робот инопланетянин человек

Внимание! Время в таблицах - всемирное. Для получения местного времени необходимо прибавить поправку, которая в Oslo равна 1 ч.

Смотрите также архив погоды в соседних городах и на ближайших метеорологических станциях:

Погода в Tryvasshogda (Норвегия) (5 км)
Погода в Bjornholt (Норвегия) (12 км)
Погода в Kjeller (Норвегия) (18 км)
Погода в Asker (Норвегия) (19 км)
Погода в Hakadal Jernbanestasjon (Норвегия) (21 км)
Погода в As (Норвегия) (31 км)
Погода в Oslo Lifthavn (Норвегия) (36 км)
Погода в Honefoss-Hoyby (Норвегия) (37 км)
Погода в Drammen Berskog (Норвегия) (40 км)
Погода в Konnerud (Норвегия) (41 км)

Пояснения к столбцам:

Ветер - указаны скорость ветра в м/с - средняя за 10 мин, порывы в срок и между сроками (в фигурных скобках) и направление, откуда дует ветер: С - северный, СВ - северо-восточный, В - восточный, ЮВ - юго-восточный, Ю - южный, ЮЗ - юго-западный, З - западный, СЗ - северо-западный.
Видимость - горизонтальная дальность видимости в метрах или километрах. При видимости от 1 до 10 км при отсутствии осадков обычно наблюдается дымка, при ухудшении видимости до 1 км и менее - туман. В сухую погоду видимость может ухудшаться дымом, пылью или мглою.
Явления - указаны атмосферные явления, наблюдавшиеся в срок или в последний час перед сроком; фигурными скобками обозначены явления, наблюдавшиеся между сроками (за 1-3 часа до срока); квадратными скобками обозначены град или гололедные отложения с указанием их диаметра в мм.
Облачность - указаны через наклонную черту общая и нижняя облачность в баллах и высота нижней границы облаков в метрах; квадратными скобками обозначены формы облаков: Ci - перистые, Cs - перисто-слоистые, Cc - перисто-кучевые, Ac - высококучевые, As - высокослоистые, Sc - слоисто-кучевые, Ns - слоисто-дождевые, Cu - кучевые, Cb - кучево-дождевые. Подробнее классификацию облаков см. в Атласе облаков (PDF).
T - Температура воздуха - температура, измеренная на высоте 2 м над землей.
Td - Температура точки росы - температура, при понижении до которой содержащийся в воздухе водяной пар достигнет насыщения.
f - Относительная влажность воздуха - влажноcть воздуха, измеренная на высоте 2 м над землей.
Te - Эффективная температура - температура, которую ощущает одетый по сезону человек в тени. Характеристика душности погоды. При расчете учитывается влияние влажности воздуха и скорости ветра на теплоощущения человека.
Tes - Эффективная температура на солнце - температура, которую ощущает человек, с поправкой на солнечный нагрев. Характеристика знойности погоды. Зависит от высоты солнца над горизонтом, облачности и скорости ветра. Ночью, в пасмурную погоду, а также при ветре 12 м/с и более поправка равна нулю.
P - Атмосферное давление - приведенное к уровню моря атмосферное давление.
Po - Атмосферное давление - измеренное на уровне метеостанции атмосферное давление.
Tmin - Минимальная температура - минимум температуры воздуха на высоте 2 м над землей.
Tmax - Максимальная температура - максимум температуры воздуха на высоте 2 м над землей.
R - Количество осадков - Количество выпавших осадков за период времени, мм. При наведении курсора мыши на число - период времени, за который выпало указанное количество осадков.
R24 - Количество осадков - Количество выпавших осадков за 24 часа, мм.
S - Снежный покров - Высота снежного покрова, см. При наведении курсора мыши на число - состояние снежного покрова и степень покрытия местности в баллах.